| time (UTC) | temp F | wind direction | speed MPH | gust MPH | rain 1hr in | rain 24hr in | rain mn in | humidity % | barometer mb |
| 20260506044522 | 59 | 173 | 3.0 | 13.0 | 0.00 | 0.27 | 0.00 | 79 | 1003.5 |
| 20260506043019 | 59 | 193 | 3.0 | 11.0 | 0.00 | 0.27 | 0.00 | 79 | 1003.3 |
| 20260506041517 | 59 | 202 | 4.0 | 12.0 | 0.00 | 0.27 | 0.00 | 78 | 1003.0 |
| 20260506040014 | 59 | 180 | 4.0 | 9.0 | 0.00 | 0.27 | 0.27 | 78 | 1002.7 |
| 20260506034513 | 59 | 178 | 1.0 | 9.0 | 0.00 | 0.27 | 0.27 | 78 | 1002.5 |
| 20260506033013 | 59 | 166 | 1.0 | 9.0 | 0.00 | 0.27 | 0.27 | 79 | 1002.2 |
| 20260506031513 | 59 | 180 | 1.0 | 7.0 | 0.00 | 0.27 | 0.27 | 79 | 1002.2 |
| 20260506030020 | 59 | 175 | 4.0 | 9.0 | 0.00 | 0.27 | 0.27 | 79 | 1002.4 |
| 20260506024522 | 59 | 177 | 4.0 | 10.0 | 0.00 | 0.27 | 0.27 | 79 | 1002.1 |
| 20260506011549 | 60 | 186 | 2.0 | 10.0 | 0.02 | 0.27 | 0.27 | 79 | 1002.0 |
| 20260506010049 | 60 | 194 | 3.0 | 11.0 | 0.02 | 0.27 | 0.27 | 80 | 1001.6 |
| 20260506004549 | 59 | 173 | 7.0 | 14.0 | 0.02 | 0.26 | 0.26 | 80 | 1001.2 |
| 20260506003049 | 59 | 190 | 5.0 | 19.0 | 0.02 | 0.25 | 0.25 | 81 | 1001.4 |
| 20260506001551 | 59 | 171 | 5.0 | 18.0 | 0.03 | 0.25 | 0.25 | 81 | 1001.1 |
| 20260506000048 | 59 | 167 | 5.0 | 14.0 | 0.05 | 0.26 | 0.25 | 81 | 1000.9 |
| 20260505234550 | 59 | 174 | 8.0 | 15.0 | 0.06 | 0.25 | 0.24 | 81 | 1000.7 |
| 20260505233046 | 59 | 171 | 8.0 | 19.0 | 0.07 | 0.24 | 0.23 | 82 | 1000.8 |
| 20260505231558 | 58 | 171 | 6.0 | 14.0 | 0.09 | 0.23 | 0.22 | 82 | 1000.7 |
| 20260505230056 | 59 | 168 | 4.0 | 11.0 | 0.09 | 0.21 | 0.20 | 82 | 1000.9 |
| 20260505224547 | 59 | 174 | 2.0 | 9.0 | 0.07 | 0.19 | 0.18 | 81 | 1000.3 |
| 20260505223044 | 59 | 196 | 2.0 | 7.0 | 0.09 | 0.16 | 0.15 | 82 | 1000.7 |
| 20260505221543 | 59 | 220 | 0.0 | 3.0 | 0.13 | 0.14 | 0.13 | 81 | 1000.5 |
| 20260505220042 | 59 | 279 | 2.0 | 12.0 | 0.11 | 0.12 | 0.11 | 80 | 1000.3 |
| 20260505214543 | 60 | 261 | 8.0 | 20.0 | 0.10 | 0.11 | 0.10 | 78 | 1000.2 |
| 20260505213051 | 69 | 267 | 13.0 | 33.0 | 0.04 | 0.05 | 0.04 | 61 | 999.2 |
| 20260505211542 | 74 | 184 | 2.0 | 22.0 | 0.00 | 0.01 | 0.00 | 38 | 996.9 |
| 20260505210038 | 74 | 175 | 5.0 | 21.0 | 0.00 | 0.01 | 0.00 | 38 | 996.4 |
| 20260505204537 | 75 | 188 | 5.0 | 20.0 | 0.00 | 0.01 | 0.00 | 37 | 996.7 |
| 20260505203037 | 76 | 177 | 4.0 | 13.0 | 0.00 | 0.01 | 0.00 | 36 | 996.9 |
| 20260505201533 | 76 | 169 | 3.0 | 14.0 | 0.00 | 0.01 | 0.00 | 36 | 997.1 |
| 20260505200031 | 75 | 207 | 3.0 | 16.0 | 0.00 | 0.01 | 0.00 | 37 | 997.3 |
| 20260505194530 | 76 | 187 | 3.0 | 14.0 | 0.00 | 0.01 | 0.00 | 35 | 997.6 |
| 20260505193028 | 76 | 248 | 4.0 | 17.0 | 0.00 | 0.01 | 0.00 | 36 | 997.8 |
| 20260505191525 | 75 | 123 | 5.0 | 14.0 | 0.00 | 0.01 | 0.00 | 38 | 997.8 |
| 20260505190024 | 75 | 173 | 4.0 | 17.0 | 0.00 | 0.01 | 0.00 | 38 | 998.0 |
| 20260505184521 | 75 | 225 | 5.0 | 20.0 | 0.00 | 0.01 | 0.00 | 37 | 998.5 |
| 20260505183022 | 74 | 196 | 5.0 | 13.0 | 0.00 | 0.01 | 0.00 | 38 | 999.1 |
| 20260505181516 | 74 | 180 | 2.0 | 14.0 | 0.00 | 0.01 | 0.00 | 39 | 999.3 |
| 20260505180034 | 73 | 173 | 3.0 | 16.0 | 0.00 | 0.01 | 0.00 | 41 | 999.7 |
| 20260505174511 | 70 | 179 | 0.0 | 16.0 | 0.00 | 0.01 | 0.00 | 45 | 1000.2 |
| 20260505173010 | 70 | 178 | 5.0 | 15.0 | 0.00 | 0.01 | 0.00 | 41 | 1000.4 |
| 20260505171509 | 71 | 199 | 2.0 | 16.0 | 0.00 | 0.01 | 0.00 | 40 | 1000.2 |
| 20260505170011 | 71 | 183 | 4.0 | 20.0 | 0.00 | 0.01 | 0.00 | 40 | 1000.2 |
| 20260505164507 | 71 | 161 | 4.0 | 14.0 | 0.00 | 0.01 | 0.00 | 39 | 1000.3 |
| 20260505163006 | 70 | 172 | 6.0 | 21.0 | 0.00 | 0.01 | 0.00 | 39 | 1000.6 |
| 20260505161504 | 71 | 186 | 3.0 | 19.0 | 0.00 | 0.01 | 0.00 | 36 | 1000.5 |
| 20260505153059 | 72 | 187 | 4.0 | 14.0 | 0.00 | 0.01 | 0.00 | 36 | 1001.0 |
| 20260505151555 | 71 | 187 | 3.0 | 14.0 | 0.00 | 0.01 | 0.00 | 39 | 1001.2 |
| 20260505124517 | 53 | 179 | 1.0 | 7.0 | 0.00 | 0.01 | 0.00 | 71 | 1002.7 |
| 20260505123026 | 51 | 178 | 2.0 | 7.0 | 0.00 | 0.01 | 0.00 | 74 | 1002.6 |
| 20260505121511 | 50 | 169 | 2.0 | 8.0 | 0.00 | 0.01 | 0.00 | 75 | 1002.5 |
| 20260505120015 | 48 | 177 | 0.0 | 5.0 | 0.00 | 0.01 | 0.00 | 78 | 1002.8 |
| 20260505114503 | 47 | 159 | 0.0 | 6.0 | 0.00 | 0.01 | 0.00 | 79 | 1003.2 |
| 20260505113059 | 46 | 175 | 0.0 | 7.0 | 0.00 | 0.01 | 0.00 | 80 | 1003.4 |
| 20260505111559 | 45 | 183 | 1.0 | 6.0 | 0.00 | 0.01 | 0.00 | 81 | 1003.5 |
| 20260505101608 | 43 | 175 | 1.0 | 6.0 | 0.00 | 0.01 | 0.00 | 83 | 1003.5 |
| 20260505100104 | 42 | 171 | 1.0 | 5.0 | 0.00 | 0.01 | 0.00 | 83 | 1003.5 |
| 20260505094553 | 42 | 180 | 0.0 | 5.0 | 0.00 | 0.01 | 0.00 | 83 | 1003.5 |
| 20260505093101 | 42 | 173 | 0.0 | 4.0 | 0.00 | 0.01 | 0.00 | 83 | 1003.6 |
| 20260505091553 | 41 | 142 | 0.0 | 0.0 | 0.00 | 0.01 | 0.00 | 82 | 1003.6 |
| 20260505090049 | 42 | 106 | 0.0 | 1.0 | 0.00 | 0.01 | 0.00 | 82 | 1003.7 |
| 20260505084547 | 42 | 94 | 0.0 | 0.0 | 0.00 | 0.01 | 0.00 | 82 | 1003.7 |
| 20260505083044 | 43 | 115 | 0.0 | 0.0 | 0.00 | 0.01 | 0.00 | 81 | 1003.8 |
| 20260505081556 | 43 | 111 | 0.0 | 0.0 | 0.00 | 0.01 | 0.00 | 80 | 1003.9 |
| 20260505080048 | 43 | 188 | 0.0 | 0.0 | 0.00 | 0.01 | 0.00 | 79 | 1004.1 |
| 20260505074537 | 45 | 188 | 0.0 | 0.0 | 0.00 | 0.01 | 0.00 | 77 | 1004.1 |
| 20260505073039 | 46 | 193 | 0.0 | 0.0 | 0.00 | 0.01 | 0.00 | 77 | 1004.2 |
| 20260505071537 | 46 | 193 | 0.0 | 3.0 | 0.00 | 0.01 | 0.00 | 76 | 1004.4 |
| 20260505070032 | 46 | 182 | 2.0 | 6.0 | 0.00 | 0.01 | 0.00 | 78 | 1004.5 |
| 20260505064529 | 45 | 173 | 2.0 | 7.0 | 0.00 | 0.01 | 0.00 | 79 | 1004.5 |
| 20260505063028 | 45 | 180 | 0.0 | 4.0 | 0.00 | 0.01 | 0.00 | 79 | 1004.3 |
| 20260505061532 | 45 | 178 | 0.0 | 3.0 | 0.00 | 0.01 | 0.00 | 79 | 1004.4 |
| 20260505060026 | 45 | 195 | 0.0 | 5.0 | 0.00 | 0.01 | 0.00 | 80 | 1004.4 |